Regional Weather Roundup
Issued by NWS Memphis, TN

Home | Current Version | Previous Version | Text Only | Print | Product List | Glossary On
Versions: 1 2 3 4 5 6 7 8 9 10 11 12 13 14 15 16 17 18 19 20 21 22 23 24 25 26 27 28 29 30 31 32 33 34 35 36 37 38 39 40 41 42 43 44 45 46 47 48 49 50
000
ASUS44 KMEG 250010
RWRMEG
MEMPHIS CWA HOURLY WEATHER ROUNDUP
NATIONAL WEATHER SERVICE MEMPHIS TN
600 PM CST WED DEC 24 2014

...WEST TENNESSEE...

CITY           SKY/WX    TMP DP  RH WIND       PRES   REMARKS
MEMPHIS INTL   CLOUDY    42  37  82 W9        29.90R
6HR MIN TEMP:  42; 6HR MAX TEMP:  48; 6HR PCP:  0.01;

NWS MEMPHIS      N/A     41 N/A N/A MISG        N/A
JACKSON        CLOUDY    42  34  73 W10       29.87R
6HR MIN TEMP:  42; 6HR MAX TEMP:  45;

LEXINGTON      CLOUDY    41  37  87 SW6       29.83R
SAVANNAH       MOCLDY    43  37  81 W6        29.87R
DYERSBURG      CLOUDY    43  28  56 W8        29.87R
6HR MIN TEMP:  43; 6HR MAX TEMP:  45;

UNION CITY     CLOUDY    37  36  93 SW6       29.82R WCI  33
PARIS          CLOUDY    39  34  81 W10       29.82R WCI  32


...EASTERN ARKANSAS...

CITY           SKY/WX    TMP DP  RH WIND       PRES   REMARKS
JONESBORO      CLOUDY    41  37  86 W9        29.88R
6HR MIN TEMP:  41; 6HR MAX TEMP:  45; 6HR PCP:  0.01;

WEST MEMPHIS   CLOUDY    41  38  89 W7        29.89R
6HR MIN TEMP:  41; 6HR MAX TEMP:  46; 6HR PCP:  0.01;

BATESVILLE     CLOUDY    41  32  70 W7        29.90R
6HR MIN TEMP:  41; 6HR MAX TEMP:  45;

NEWPORT        CLOUDY    44  34  68 W13       29.91R
6HR MIN TEMP:  43; 6HR MAX TEMP:  45;

WALNUT RIDGE   CLOUDY    43  32  65 W10       29.86R
6HR MIN TEMP:  43; 6HR MAX TEMP:  46;

BLYTHEVILLE    CLOUDY    42  37  82 W9        29.87R
6HR MIN TEMP:  42; 6HR MAX TEMP:  45; 6HR PCP: TRACE;

SEARCY         CLOUDY    44  35  70 W6        29.93R
6HR MIN TEMP:  43; 6HR MAX TEMP:  45; 6HR PCP: TRACE;

STUTTGART      CLOUDY    45  34  65 W9        29.95R
6HR MIN TEMP:  45; 6HR MAX TEMP:  46; 6HR PCP:  0.01;

PINE BLUFF     CLOUDY    43  34  70 W9        29.96R
6HR MIN TEMP:  43; 6HR MAX TEMP:  46; 6HR PCP: TRACE;

MONTICELLO     MOCLDY    42  37  82 W7        29.97R
6HR MIN TEMP:  42; 6HR MAX TEMP:  47; 6HR PCP:  0.02;



...NORTH MISSISSIPPI...

CITY           SKY/WX    TMP DP  RH WIND       PRES   REMARKS
TUPELO         CLOUDY    45  36  70 W5        29.90R
6HR MIN TEMP:  45; 6HR MAX TEMP:  51;

OXFORD         CLOUDY    41  32  70 W6        29.92R
OLIVE BRANCH   CLOUDY    39  39 100 W7        29.91R WCI  34
TUNICA         CLOUDY    41  36  81 W7        29.94R
CLARKSDALE     MOCLDY    45  39  81 SW8       29.95R
CORINTH        CLOUDY    45  34  65 W8G14     29.87R
GRENADA        CLOUDY    43  36  75 W3        29.94R
GREENWOOD      CLOUDY    46  35  65 W7        29.95R
6HR MIN TEMP:  45; 6HR MAX TEMP:  48; 6HR PCP: TRACE;

COLUMBUS       CLOUDY    46  37  71 W10       29.92R
6HR MIN TEMP:  46; 6HR MAX TEMP:  51;

STARKVILLE     CLOUDY    45  37  76 W5        29.93R
GOLDEN TRIANGL CLOUDY    46  37  71 W7        29.92R


...SOUTHEAST MISSOURI...

CITY           SKY/WX    TMP DP  RH WIND       PRES   REMARKS
WEST PLAINS    CLOUDY    38  30  73 W10G17    29.84R WCI  31
6HR MIN TEMP:  37; 6HR MAX TEMP:  39; 6HR PCP: TRACE;

POPLAR BLUFF   CLOUDY    41  33  73 W6        29.83R
6HR MIN TEMP:  41; 6HR MAX TEMP:  45; 6HR PCP: TRACE;

CAPE GIRARDEAU CLOUDY    41  37  86 W12       29.81R
6HR MIN TEMP:  40; 6HR MAX TEMP:  43; 6HR PCP:  0.02;



...NORTHWEST ALABAMA...

CITY           SKY/WX    TMP DP  RH WIND       PRES   REMARKS
MUSCLE SHOALS  CLOUDY    46  37  71 W13       29.87R
6HR MIN TEMP:  46; 6HR MAX TEMP:  49;



...MIDDLE TENNESSEE...

CITY           SKY/WX    TMP DP  RH WIND       PRES   REMARKS
NASHVILLE      DRIZZLE   46  39  76 W6        29.80R
6HR MIN TEMP:  45; 6HR MAX TEMP:  48; 6HR PCP: TRACE;

CLARKSVILLE    LGT RAIN  42  37  82 W14       29.80R
6HR MIN TEMP:  42; 6HR MAX TEMP:  49; 6HR PCP:  0.01;

COLUMBIA       CLOUDY    45  45 100 SW12      29.80R


...WESTERN KENTUCKY...

CITY           SKY/WX    TMP DP  RH WIND       PRES   REMARKS
PADUCAH        CLOUDY    40  36  86 W9        29.80R WCI  34
6HR MIN TEMP:  40; 6HR MAX TEMP:  43; 6HR PCP: TRACE;

FORT CAMPBELL  CLOUDY    41  37  87 W13       29.80R
6HR MIN TEMP:  41; 6HR MAX TEMP:  47; 6HR PCP:  0.01;



...CENTRAL ARKANSAS...

CITY           SKY/WX    TMP DP  RH WIND       PRES   REMARKS
LITTLE ROCK    CLOUDY    44  32  62 W8        29.95R
6HR MIN TEMP:  44; 6HR MAX TEMP:  46;



SKY/WX REPORTED AS FAIR MEANS FEW OR NO CLOUDS BELOW
12 THOUSAND FEET.



USA.gov is the U.S. government's official web portal to all federal, state and local government web resources and services.